Regional Weather Roundup
Issued by NWS Charleston, WV

Home | Current Version | Previous Version | Graphics & Text | Print | Product List | Glossary On
Versions: 1 2 3 4 5 6 7 8 9 10 11 12 13 14 15 16 17 18 19 20 21 22 23 24 25 26 27
000
ASUS41 KRLX 122310
RWRRLX
West Virginia Regional Weather Roundup
National Weather Service Charleston WV
600 PM EST TUE DEC 12 2017

Note: "fair" indicates few or no clouds below 12,000 feet with no
significant weather and/or obstructions to visibility.

WVZ003-130000-
Northern Panhandle of West Virginia

CITY           SKY/WX    TMP DP  RH WIND       PRES   REMARKS
WHEELING       MOCLDY    18   7  62 NW9       29.81R WCI   7
$$

WVZ009-130000-
Northwest West Virginia

CITY           SKY/WX    TMP DP  RH WIND       PRES   REMARKS
PARKERSBURG    LGT SNOW  24   9  52 NW10G21   29.91R
$$

WVZ006-130000-
Western West Virginia

CITY           SKY/WX    TMP DP  RH WIND       PRES   REMARKS
HUNTINGTON     FLURRIES  25  16  68 NW10      29.93R
$$

WVZ015-130000-
West Central West Virginia

CITY           SKY/WX    TMP DP  RH WIND       PRES   REMARKS
CHARLESTON     FLURRIES  25  14  63 NW7G18    29.89R
$$

WVZ022-031-130000-
North Central West Virginia

CITY           SKY/WX    TMP DP  RH WIND       PRES   REMARKS
CLARKSBURG     CLOUDY    23   9  55 W13G20    29.81R
MORGANTOWN     CLOUDY    21   6  52 NW8G16    29.80R
$$

WVZ025-035-042-045-130000-
Southern West Virginia

CITY           SKY/WX    TMP DP  RH WIND       PRES   REMARKS
BECKLEY        LGT SNOW  20  14  77 NW17G24   29.75R WCI   5
LOGAN          FLURRIES  21  19  93 NW5G12    29.86R
BLUEFIELD      LGT SNOW  20  12  71 NW17G29   29.74R WCI   5
LEWISBURG      CLOUDY    22  10  59 NW10G23   29.74R
$$

WVZ047-130000-
Northern Mountains of West Virginia

CITY           SKY/WX    TMP DP  RH WIND       PRES   REMARKS
ELKINS         LGT SNOW  19  11  70 NW12G21   29.75R WCI   7
$$

WVZ052-130000-
Eastern Panhandle of West Virginia

CITY           SKY/WX    TMP DP  RH WIND       PRES   REMARKS
MARTINSBURG    LGT SNOW  28  16  60 NW17G35   29.68R
PETERSBURG     FLURRIES  24  13  61 W23G30    29.74R WCI   9
$$




USA.gov is the U.S. government's official web portal to all federal, state and local government web resources and services.